This is the latest recevied weather packets stored in our database for station/object W5HKR. If no packets are shown the sender has not sent any weather packets the latest 10 day(s).
| Time | Temp. | Humidity | Pressure | Rain* | Wind** | Luminosity | Snow |
|---|---|---|---|---|---|---|---|
| 1777939707 | 26.67° C | 62% | 981 hPa | 0 mm | - | - | - |
| 1777939407 | 18.33° C | 91% | 990.6 hPa | 0 mm | - | - | - |
| 1777939108 | 26.67° C | 62% | 981 hPa | 0 mm | - | - | - |
| 1777938808 | 26.67° C | 62% | 981 hPa | 0 mm | - | - | - |
| 1777938717 | 26.67° C | 62% | 980.9 hPa | 0 mm | - | - | - |
| 1777938507 | 27.22° C | 62% | 981.3 hPa | 0 mm | - | - | - |
| 1777938207 | 27.22° C | 62% | 981.1 hPa | 0 mm | - | - | - |
| 1777937908 | 18.33° C | 91% | 990.6 hPa | 0 mm | - | - | - |
| 1777937639 | 27.22° C | 62% | 981.1 hPa | 0 mm | - | - | - |
| 1777937608 | 27.22° C | 62% | 981.4 hPa | 0 mm | - | - | - |
| 1777937309 | 27.22° C | 61% | 981.7 hPa | 0 mm | - | - | - |
| 1777937008 | 18.33° C | 91% | 990.6 hPa | 0 mm | - | - | - |
| 1777936707 | 27.78° C | 60% | 981.4 hPa | 0 mm | - | - | - |
| 1777936558 | 18.33° C | 91% | 990.6 hPa | 0 mm | - | - | - |
| 1777936407 | 18.33° C | 91% | 990.6 hPa | 0 mm | - | - | - |
| 1777936108 | 18.33° C | 91% | 990.6 hPa | 0 mm | - | - | - |
| 1777935809 | 18.33° C | 91% | 990.6 hPa | 0 mm | - | - | - |
| 1777935478 | 27.22° C | 61% | 982.4 hPa | 0 mm | - | - | - |
| 1777935209 | 18.33° C | 91% | 990.6 hPa | 0 mm | - | - | - |
| 1777934908 | 27.22° C | 61% | 982.1 hPa | 0 mm | - | - | - |
| 1777934609 | 18.33° C | 91% | 990.6 hPa | 0 mm | - | - | - |
| 1777934399 | 18.33° C | 91% | 990.6 hPa | 0 mm | - | - | - |
| 1777934307 | 18.33° C | 91% | 990.6 hPa | 0 mm | - | - | - |
| 1777934007 | 18.33° C | 91% | 990.6 hPa | 0 mm | - | - | - |
| 1777933708 | 26.67° C | 62% | 982.1 hPa | 0 mm | - | - | - |
* Rain latest hour (hover to see other rain measurements)
** Current wind speed in m/s (hover to see current wind gust speed)